FENGYUN 4B

Last updated on Thu Oct 30 2025 00:02:51 GMT+0000 (Coordinated Universal Time)

1 48808U 21047A 25301.84966462 -.00000320 00000+0 00000+0 0 9992 2 48808 0.1435 281.9968 0010577 76.3968 89.5690 1.00269745 16250
UTC large
Height (km)
Speed (km/s)
/
Latitude / Longitude
Inclination (degrees)
Orbital Period (minutes)
Azimuth
Elevation
Range (km)
Doppler Factor

Next 0 passes for location: London (51.5072 / 0.1276)

Sorry there are no passes over London.